This is the latest recevied weather packets stored in our database for station/object N4CRH-13. If no packets are shown the sender has not sent any weather packets the latest 10 day(s).
| Time | Temp. | Humidity | Pressure | Rain* | Wind** | Luminosity | Snow |
|---|---|---|---|---|---|---|---|
| 1778005184 | 1.11° C | 99% | 1290.6 hPa | 1.78 mm | - | 143 W/m² | - |
| 1778004882 | 0.56° C | 99% | 1290.4 hPa | 0 mm | - | 161 W/m² | - |
| 1778004579 | 0.56° C | 99% | 1290.7 hPa | 0 mm | - | 138 W/m² | - |
| 1778003364 | 0.56° C | 99% | 1290.7 hPa | 1.78 mm | - | 117 W/m² | - |
| 1778003062 | 1.11° C | 99% | 1290.9 hPa | 0 mm | - | 105 W/m² | - |
| 1778002757 | 0.56° C | 99% | 1290.7 hPa | 0 mm | - | 128 W/m² | - |
| 1778002455 | 0.56° C | 99% | 1291.2 hPa | 0 mm | - | 112 W/m² | - |
| 1778002152 | 0.56° C | 99% | 1290.9 hPa | 0 mm | - | 112 W/m² | - |
| 1778001850 | 0.56° C | 99% | 1290.8 hPa | 0 mm | - | 97 W/m² | - |
| 1778001549 | 0.56° C | 99% | 1291.3 hPa | 0 mm | - | 93 W/m² | - |
| 1778001246 | 0.56° C | 99% | 1290.9 hPa | 0 mm | - | 99 W/m² | - |
| 1778000942 | 0.56° C | 99% | 1291.2 hPa | 0 mm | - | 90 W/m² | - |
| 1778000639 | 0.56° C | 99% | 1291.1 hPa | 0 mm | - | 93 W/m² | - |
| 1778000334 | 0.56° C | 99% | 1291.4 hPa | 0 mm | - | 95 W/m² | - |
| 1778000030 | 0.56° C | 99% | 1291.3 hPa | 0 mm | - | 103 W/m² | - |
| 1777999726 | 0.56° C | 99% | 1291.3 hPa | 0 mm | - | 81 W/m² | - |
| 1777999121 | 0.56° C | 99% | 1291.3 hPa | 0 mm | - | 69 W/m² | - |
| 1777998819 | 0.56° C | 99% | 1291.4 hPa | 0 mm | - | 69 W/m² | - |
| 1777998518 | 0.56° C | 99% | 1291.7 hPa | 0 mm | - | 93 W/m² | - |
| 1777998213 | 0.56° C | 99% | 1291.5 hPa | 0 mm | - | 78 W/m² | - |
| 1777997905 | 0.56° C | 99% | 1291.5 hPa | 0 mm | - | 71 W/m² | - |
| 1777997603 | 0.56° C | 99% | 1291.4 hPa | 0 mm | - | 79 W/m² | - |
| 1777997300 | 0.56° C | 99% | 1291.5 hPa | 0 mm | - | 86 W/m² | - |
| 1777996997 | 0.56° C | 99% | 1291.3 hPa | 0 mm | - | 63 W/m² | - |
| 1777996693 | 0.56° C | 99% | 1291.7 hPa | 0 mm | - | 65 W/m² | - |
* Rain latest hour (hover to see other rain measurements)
** Current wind speed in m/s (hover to see current wind gust speed)